Regional Weather Roundup
Issued by NWS

Home | Current Version | Previous Version | Graphics & Text | Print | Product List | Glossary On
Versions: 1 2 3 4 5 6 7 8 9 10 11 12 13 14 15 16 17 18 19 20 21 22 23 24 25 26 27 28 29 30 31 32 33 34 35 36 37 38 39 40 41 42 43 44 45 46 47 48 49 50
593
ASUS44 KMEG 150810
RWRTN
TENNESSEE HOURLY STATE WEATHER ROUNDUP
NATIONAL WEATHER SERVICE MEMPHIS TN
200 AM CST FRI DEC 15 2017

TNZ002-004-019-021-049-052-054-088>092-150900-
WEST TENNESSEE

CITY           SKY/WX    TMP DP  RH WIND       PRES   REMARKS
MEMPHIS INTL   CLEAR     32  25  75 N3        30.14S
NWS MEMPHIS      N/A     27 N/A N/A MISG        N/A
JACKSON        CLOUDY    28  25  88 CALM      30.13R
DYERSBURG      CLOUDY    31  27  85 CALM      30.14S
SOMERVILLE     MOCLDY    28  25  86 CALM      30.12S
COVINGTON      CLOUDY    25  21  86 CALM      30.15R
UNION CITY     CLOUDY    32  28  86 CALM      30.12S
BOLIVAR        CLOUDY    25  23  93 CALM      30.11F
PARIS          CLOUDY    32  23  69 VRB3      30.10R
HUNTINGDON     CLOUDY    32  25  74 CALM      30.10S
LEXINGTON      CLOUDY    28  25  86 CALM      30.11R
SELMER         CLEAR     27  23  86 CALM      30.11S
SAVANNAH       CLEAR     25  23  93 CALM      30.11S
$$

TNZ008-025-027-028-033-062-065-066-150900-
NORTH MIDDLE TENNESSEE

CITY           SKY/WX    TMP DP  RH WIND       PRES   REMARKS
NASHVILLE      CLOUDY    33  21  61 NW7       30.09S WCI  27
PORTLAND       CLOUDY    30  23  74 CALM      30.06S
CLARKSVILLE    CLOUDY    32  20  61 NW3       30.10R
SMYRNA         CLOUDY    32  24  72 NW6       30.10S WCI  26
COOKEVILLE     CLOUDY    28  25  86 CALM      30.04S
GALLATIN       CLOUDY    32  23  69 NW3       30.10F
CROSSVILLE     CLOUDY    25  22  88 W6        30.00S WCI  18
$$

TNZ061-075-076-078-094-096-097-150900-
SOUTH MIDDLE TENNESSEE

CITY           SKY/WX    TMP DP  RH WIND       PRES   REMARKS
FAYETTEVILLE   CLEAR     27  23  86 CALM      30.05F
TULLAHOMA      CLOUDY    23  21  93 CALM      30.05S
WINCHESTER     CLEAR     27  21  80 CALM      30.06F
MCMINNVILLE    MOCLDY    21  21 100 CALM      30.05S
COLUMBIA       CLOUDY    27  25  93 CALM      30.07S
$$

TNZ017-018-042-046-047-150900-
NORTHEAST TENNESSEE

CITY           SKY/WX    TMP DP  RH WIND       PRES   REMARKS
TRI CITIES     CLEAR     24  23  96 CALM      29.99S
ELIZABETHTON   CLEAR     23  23 100 CALM      30.00R
$$

TNZ012-013-036-069-073-074-150900-
CENTRAL EAST TENNESSEE

CITY           SKY/WX    TMP DP  RH WIND       PRES   REMARKS
KNOXVILLE      PTCLDY    30  28  92 CALM      30.02S
OAK RIDGE      CLOUDY    31  27  85 CALM      30.04S
DOWNTOWN KNOXV CLOUDY    30  28  93 CALM      30.04S
GATLINBURG     PTCLDY    27  25  93 CALM      30.02S
MORRISTOWN     CLOUDY    27  25  93 CALM      30.00S
JACKSBORO      CLOUDY    30  28  93 CALM      30.05S
$$

TNZ083-085-099-150900-
SOUTHEAST TENNESSEE

CITY           SKY/WX    TMP DP  RH WIND       PRES   REMARKS
CHATTANOOGA    CLOUDY    35  26  69 N10       30.05S WCI  27
DAYTON         SUNNY     27  27 100 CALM      30.04S
$$

SKY/WX REPORTED AS FAIR MEANS FEW OR NO CLOUDS BELOW
12 THOUSAND FEET.





USA.gov is the U.S. government's official web portal to all federal, state and local government web resources and services.